Simultaneous Nadir Overpasses (SNOs) Predictions

Prediction of SNOs between NOAA-20 and AQUA Satellite Orbit:

Table of predicted SNOs for the next 14.0 days since TLE Epoch: 6/14/2019
Index Date (NOAA-20) Time (NOAA-20) Lat,Lon (NOAA-20) SZA (NOAA-20 ) Date (AQUA) Time (AQUA) Lat,Lon (AQUA) SZA (AQUA ) Distance(km) Time Diff (sec)
1 06/16/2019 22:13:10 75.89, 85.29 74.55 06/16/2019 22:13:27 75.89, 85.32 74.53 0.93 17
2 06/16/2019 23:03:30 -77.05,-103.10 106.92 06/16/2019 23:02:31 -77.04,-103.19 106.85 2.41 59
3 06/19/2019 13:39:38 -75.00, 31.00 104.41 06/19/2019 13:40:47 -75.00, 31.07 104.48 1.96 69
4 06/19/2019 14:29:51 76.43,-157.03 73.84 06/19/2019 14:29:43 76.43,-157.10 73.86 1.72 8
5 06/22/2019 05:56:19 -75.61, 148.61 105.13 06/22/2019 05:57:03 -75.61, 148.60 105.16 0.17 44
6 06/22/2019 06:46:43 76.52, -40.94 73.75 06/22/2019 06:46:09 76.52, -40.89 73.76 1.32 34
7 06/24/2019 22:13:01 -76.16, -93.79 105.74 06/24/2019 22:13:20 -76.15, -93.88 105.73 2.67 19
8 06/24/2019 23:03:26 77.00, 76.73 73.19 06/24/2019 23:02:27 76.99, 76.66 73.25 1.86 59
9 06/27/2019 13:39:33 75.03,-148.89 75.75 06/27/2019 13:40:42 75.03,-148.84 75.68 1.49 69
10 06/27/2019 14:29:52 -76.29, 22.45 105.79 06/27/2019 14:29:45 -76.29, 22.46 105.79 0.39 7




NCC Satellite Simultaneous Nadir Overpasses (SNOs) Prediction Service
